Weather History for Budapest Ferihegy, Hungary

Change the Weather History Date:

Monday, February 25, 2013

  Actual Average Record
Temperature  
Mean Temperature 46 °F -  
Max Temperature 50 °F 48 °F 66 °F (2008)
Min Temperature 42 °F 29 °F 12 °F (2003)
Degree Days  
Heating Degree Days 19    
Moisture  
Dew Point 43 °F    
Average Humidity 89    
Maximum Humidity 100    
Minimum Humidity 76    
Precipitation  
Precipitation 0.00 in - - ()
Sea Level Pressure  
Sea Level Pressure 30.05 in    
Wind  
Wind Speed 10 mph ()    
Max Wind Speed 15 mph    
Max Gust Speed -    
Visibility 6.2 miles    
Events Rain    
Averages and records for this station are not official NWS values.
T = Trace of Precipitation, MM = Missing Value Source: Averaged Metar Reports

Daily Weather History Graph

Daily Weather History Graph

Search for Another Location

Airport:

Trip Planner

Search our weather history database for the weather conditions in past years. The results will help you decide how hot, cold, wet, or windy it might be!

Date:

Astronomy

Feb. 25, 2013 Rise Set
Actual Time 6:30 AM CET 5:21 PM CET
Civil Twilight 5:59 AM CET 5:52 PM CET
Nautical Twilight 5:24 AM CET 6:28 PM CET
Astronomical Twilight 4:48 AM CET 7:04 PM CET
Moon 5:19 PM CET (2/25) 5:50 AM CET (2/25)
Length of Visible Light 11h 53m
Length of Day
10h 51m
Full, 100% of the Moon is Illuminated
Feb 25
Full
Feb 25
Full
Mar 4
Last Quarter
Mar 11
New
Mar 19
First Quarter

Hourly Weather History & Observations

Time (CET) Temp. Windchill Dew Point Humidity Pressure Visibility Wind Dir Wind Speed Gust Speed Precip Events Conditions
12:00 AM 44.6 °F 38.4 °F 42.8 °F 93% 29.92 in 6.2 mi ESE 12.7 mph - N/A   Mostly Cloudy
12:30 AM 44.6 °F 37.8 °F 42.8 °F 93% 29.92 in 6.2 mi ESE 15.0 mph - N/A   Mostly Cloudy
1:00 AM 44.6 °F 37.8 °F 41.0 °F 87% 29.92 in 6.2 mi ESE 15.0 mph - N/A   Overcast
1:30 AM 44.6 °F 37.8 °F 41.0 °F 87% 29.95 in 6.2 mi East 15.0 mph - N/A   Mostly Cloudy
2:00 AM 44.6 °F 38.1 °F 41.0 °F 87% 29.95 in 6.2 mi East 13.8 mph - N/A   Mostly Cloudy
2:30 AM 44.6 °F 37.8 °F 41.0 °F 87% 29.95 in 6.2 mi ESE 15.0 mph - N/A   Mostly Cloudy
3:00 AM 42.8 °F 35.4 °F 41.0 °F 93% 29.95 in 6.2 mi ESE 15.0 mph - N/A   Mostly Cloudy
3:30 AM 42.8 °F 36.6 °F 41.0 °F 93% 29.95 in 6.2 mi ESE 11.5 mph - N/A   Mostly Cloudy
4:00 AM 42.8 °F 36.2 °F 41.0 °F 93% 29.98 in 6.2 mi ESE 12.7 mph - N/A   Mostly Cloudy
4:30 AM 42.8 °F 36.2 °F 41.0 °F 93% 29.98 in 6.2 mi ESE 12.7 mph - N/A   Mostly Cloudy
5:00 AM 42.8 °F 36.6 °F 41.0 °F 93% 29.98 in 6.2 mi ESE 11.5 mph - N/A   Mostly Cloudy
5:30 AM 42.8 °F 36.2 °F 41.0 °F 93% 29.98 in 6.2 mi ESE 12.7 mph - N/A   Mostly Cloudy
6:00 AM 42.8 °F 36.2 °F 39.2 °F 87% 30.01 in 6.2 mi ESE 12.7 mph - N/A   Mostly Cloudy
6:30 AM 42.8 °F 37.5 °F 39.2 °F 87% 30.01 in 6.2 mi ESE 9.2 mph - N/A   Mostly Cloudy
7:00 AM 42.8 °F 37.5 °F 41.0 °F 93% 30.01 in 6.2 mi ESE 9.2 mph - N/A   Mostly Cloudy
7:30 AM 42.8 °F 38.0 °F 41.0 °F 93% 30.04 in 6.2 mi East 8.1 mph - N/A   Mostly Cloudy
8:00 AM 42.8 °F 37.5 °F 41.0 °F 93% 30.04 in 6.2 mi ESE 9.2 mph - N/A   Mostly Cloudy
8:30 AM 42.8 °F 38.0 °F 41.0 °F 93% 30.04 in 6.2 mi East 8.1 mph - N/A   Mostly Cloudy
9:00 AM 42.8 °F 37.5 °F 41.0 °F 93% 30.06 in 6.2 mi ESE 9.2 mph - N/A   Mostly Cloudy
9:30 AM 44.6 °F 39.2 °F 41.0 °F 87% 30.06 in 6.2 mi ESE 10.4 mph - N/A   Mostly Cloudy
10:00 AM 44.6 °F 40.2 °F 39.2 °F 81% 30.06 in 6.2 mi SE 8.1 mph - N/A   Mostly Cloudy
10:30 AM 44.6 °F 40.2 °F 41.0 °F 87% 30.09 in 6.2 mi SE 8.1 mph - N/A   Mostly Cloudy
11:00 AM 46.4 °F 42.4 °F 41.0 °F 81% 30.09 in 6.2 mi East 8.1 mph - N/A   Mostly Cloudy
11:30 AM 46.4 °F 41.9 °F 41.0 °F 81% 30.09 in 6.2 mi East 9.2 mph - N/A   Mostly Cloudy
12:00 PM 46.4 °F 41.5 °F 41.0 °F 81% 30.09 in 6.2 mi East 10.4 mph - N/A   Mostly Cloudy
12:30 PM 46.4 °F 41.5 °F 41.0 °F 81% 30.09 in 6.2 mi East 10.4 mph - N/A   Mostly Cloudy
1:00 PM 46.4 °F 41.1 °F 41.0 °F 81% 30.09 in 6.2 mi East 11.5 mph - N/A   Mostly Cloudy
1:30 PM 46.4 °F 40.7 °F 41.0 °F 81% 30.09 in 6.2 mi East 12.7 mph - N/A   Mostly Cloudy
2:00 PM 48.2 °F - 41.0 °F 76% 30.09 in 6.2 mi East 11.5 mph - N/A   Mostly Cloudy
2:30 PM 48.2 °F - 42.8 °F 82% 30.09 in 6.2 mi SE 9.2 mph - N/A   Mostly Cloudy
3:00 PM 48.2 °F - 42.8 °F 82% 30.09 in 6.2 mi ESE 8.1 mph - N/A   Mostly Cloudy
3:30 PM 50.0 °F - 42.8 °F 76% 30.09 in 6.2 mi East 9.2 mph - N/A   Mostly Cloudy
4:00 PM 50.0 °F - 42.8 °F 76% 30.09 in 6.2 mi East 8.1 mph - N/A   Mostly Cloudy
4:30 PM 48.2 °F - 42.8 °F 82% 30.12 in 6.2 mi ESE 6.9 mph - N/A   Mostly Cloudy
5:00 PM 48.2 °F - 42.8 °F 82% 30.12 in 6.2 mi ESE 4.6 mph - N/A   Mostly Cloudy
5:30 PM 48.2 °F - 42.8 °F 82% 30.12 in 6.2 mi Variable 3.5 mph - N/A   Mostly Cloudy
6:00 PM 48.2 °F - 42.8 °F 82% 30.12 in 6.2 mi Variable 3.5 mph - N/A   Mostly Cloudy
6:30 PM 48.2 °F - 46.4 °F 93% 30.12 in 6.2 mi Variable 1.2 mph - N/A   Mostly Cloudy
7:00 PM 48.2 °F - 48.2 °F 100% 30.12 in 6.2 mi Variable 3.5 mph - N/A   Mostly Cloudy
7:30 PM 48.2 °F - 48.2 °F 100% 30.12 in 6.2 mi NE 11.5 mph - N/A   Mostly Cloudy
8:00 PM 48.2 °F - 48.2 °F 100% 30.12 in 6.2 mi NE 13.8 mph - N/A   Mostly Cloudy
8:30 PM 48.2 °F - 46.4 °F 93% 30.12 in 6.2 mi NE 15.0 mph - N/A   Scattered Clouds
9:00 PM 46.4 °F 41.1 °F 46.4 °F 100% 30.12 in 6.2 mi NE 11.5 mph - N/A   Scattered Clouds
9:30 PM 46.4 °F 43.5 °F 46.4 °F 100% 30.12 in 6.2 mi North 5.8 mph - N/A   Scattered Clouds
10:00 PM 46.4 °F 42.4 °F 46.4 °F 100% 30.12 in 6.2 mi North 8.1 mph - N/A   Mostly Cloudy
10:30 PM 46.4 °F 41.9 °F 46.4 °F 100% 30.12 in 6.2 mi NNW 9.2 mph - N/A   Mostly Cloudy
11:00 PM 46.4 °F 41.5 °F 46.4 °F 100% 30.12 in 6.2 mi North 10.4 mph - N/A Rain Light Rain
11:30 PM 46.4 °F 41.9 °F 46.4 °F 100% 30.09 in 6.2 mi NNW 9.2 mph - N/A Rain Light Rain